Location: Whitehorse
(60.7170°N, 135.0500°W)
Time: 21:42:53
(UTC-07:00)

SL-16 R/B - Visible Passes

Search period start: 02 September 2014 00:00
Search period end: 12 September 2014 00:00
Orbit: 840 x 850 km, 71.0° (Epoch: 02 September)

Date Brightness Start Highest point End Pass type
(mag) Time Alt. Az. Time Alt. Az. Time Alt. Az.
05 Sep 4.9 06:15:44 10° SE 06:19:04 16° E 06:22:26 10° ENE visible
06 Sep 4.9 06:01:53 10° SE 06:05:09 16° E 06:08:25 10° ENE visible
07 Sep 4.9 05:48:02 10° SE 05:51:13 15° E 05:54:24 10° ENE visible
08 Sep 4.8 05:34:12 10° SE 05:37:17 15° E 05:40:22 10° ENE visible
09 Sep 4.8 05:20:22 10° SE 05:23:21 15° E 05:26:21 10° ENE visible
10 Sep 4.8 05:06:32 10° SE 05:09:25 14° E 05:12:19 10° ENE visible
11 Sep 4.8 04:52:42 10° SE 04:55:29 14° E 04:58:17 10° ENE visible
